Wetterdaten: Sonntag, 24.10.2010
Datum Zeit Temp. A. Feuchte A. Luftdruck Regen Wind Richtung Richtung Sonnenschein UV Solar Windben
24.10.2010 00:00 8,3 C 80 % 1000,0 hPa 0,0 mm 8,0 km/h (2 Bft) S-SW 202 0 min 0 UV-I 0 W/m 22,5 km/h (4 Bft)
24.10.2010 00:10 8,4 C 80 % 999,9 hPa 0,0 mm 6,4 km/h (2 Bft) SW 225 0 min 0 UV-I 0 W/m 19,3 km/h (3 Bft)
24.10.2010 00:20 8,5 C 80 % 999,8 hPa 0,0 mm 4,8 km/h (1 Bft) SW 225 0 min 0 UV-I 0 W/m 16,1 km/h (3 Bft)
24.10.2010 00:30 8,5 C 80 % 999,7 hPa 0,0 mm 4,8 km/h (1 Bft) S-SW 202 0 min 0 UV-I 0 W/m 20,9 km/h (4 Bft)
24.10.2010 00:40 8,4 C 80 % 999,6 hPa 0,0 mm 3,2 km/h (1 Bft) SW 225 0 min 0 UV-I 0 W/m 16,1 km/h (3 Bft)
24.10.2010 00:50 8,4 C 81 % 999,6 hPa 0,3 mm 4,8 km/h (1 Bft) S-SW 202 0 min 0 UV-I 0 W/m 17,7 km/h (3 Bft)
24.10.2010 01:00 8,4 C 82 % 999,5 hPa 0,0 mm 6,4 km/h (2 Bft) S-SW 202 0 min 0 UV-I 0 W/m 22,5 km/h (4 Bft)
24.10.2010 01:10 8,4 C 82 % 999,5 hPa 0,0 mm 6,4 km/h (2 Bft) S-SW 202 0 min 0 UV-I 0 W/m 20,9 km/h (4 Bft)
24.10.2010 01:20 8,3 C 83 % 999,5 hPa 0,0 mm 6,4 km/h (2 Bft) SW 225 0 min 0 UV-I 0 W/m 17,7 km/h (3 Bft)
24.10.2010 01:30 8,3 C 83 % 999,5 hPa 0,0 mm 6,4 km/h (2 Bft) SW 225 0 min 0 UV-I 0 W/m 17,7 km/h (3 Bft)
24.10.2010 01:40 8,3 C 83 % 999,5 hPa 0,0 mm 6,4 km/h (2 Bft) SW 225 0 min 0 UV-I 0 W/m 25,7 km/h (4 Bft)
24.10.2010 01:50 8,4 C 83 % 999,4 hPa 0,0 mm 8,0 km/h (2 Bft) W-SW 247 0 min 0 UV-I 0 W/m 27,4 km/h (4 Bft)
24.10.2010 02:00 8,5 C 82 % 999,5 hPa 0,0 mm 8,0 km/h (2 Bft) SW 225 0 min 0 UV-I 0 W/m 27,4 km/h (4 Bft)
24.10.2010 02:10 8,5 C 82 % 999,5 hPa 0,0 mm 8,0 km/h (2 Bft) W-SW 247 0 min 0 UV-I 0 W/m 25,7 km/h (4 Bft)
24.10.2010 02:20 8,6 C 82 % 999,5 hPa 0,0 mm 6,4 km/h (2 Bft) W-SW 247 0 min 0 UV-I 0 W/m 20,9 km/h (4 Bft)
24.10.2010 02:30 8,6 C 82 % 999,6 hPa 0,0 mm 6,4 km/h (2 Bft) W-SW 247 0 min 0 UV-I 0 W/m 20,9 km/h (4 Bft)
24.10.2010 02:40 8,6 C 82 % 999,7 hPa 0,0 mm 6,4 km/h (2 Bft) W-SW 247 0 min 0 UV-I 0 W/m 19,3 km/h (3 Bft)
24.10.2010 02:50 8,6 C 82 % 999,8 hPa 0,0 mm 9,7 km/h (2 Bft) W-SW 247 0 min 0 UV-I 0 W/m 30,6 km/h (5 Bft)
24.10.2010 03:00 8,7 C 82 % 999,9 hPa 0,0 mm 9,7 km/h (2 Bft) W-SW 247 0 min 0 UV-I 0 W/m 22,5 km/h (4 Bft)
24.10.2010 03:10 8,7 C 82 % 999,9 hPa 0,0 mm 8,0 km/h (2 Bft) W 270 0 min 0 UV-I 0 W/m 27,4 km/h (4 Bft)
24.10.2010 03:20 8,7 C 82 % 1000,1 hPa 0,0 mm 11,3 km/h (2 Bft) W-SW 247 0 min 0 UV-I 0 W/m 27,4 km/h (4 Bft)
24.10.2010 03:30 8,7 C 83 % 1000,2 hPa 0,0 mm 11,3 km/h (2 Bft) W-SW 247 0 min 0 UV-I 0 W/m 25,7 km/h (4 Bft)
24.10.2010 03:40 8,7 C 83 % 1000,2 hPa 0,0 mm 12,9 km/h (3 Bft) W-SW 247 0 min 0 UV-I 0 W/m 35,4 km/h (5 Bft)
24.10.2010 03:50 8,6 C 84 % 1000,2 hPa 0,0 mm 9,7 km/h (2 Bft) W-SW 247 0 min 0 UV-I 0 W/m 25,7 km/h (4 Bft)
24.10.2010 04:00 8,5 C 84 % 1000,2 hPa 0,0 mm 12,9 km/h (3 Bft) W-SW 247 0 min 0 UV-I 0 W/m 35,4 km/h (5 Bft)
24.10.2010 04:10 8,4 C 84 % 1000,3 hPa 0,0 mm 12,9 km/h (3 Bft) W-SW 247 0 min 0 UV-I 0 W/m 30,6 km/h (5 Bft)
24.10.2010 04:20 8,4 C 83 % 1000,5 hPa 0,0 mm 11,3 km/h (2 Bft) W-SW 247 0 min 0 UV-I 0 W/m 29,0 km/h (5 Bft)
24.10.2010 04:30 8,3 C 83 % 1000,6 hPa 0,0 mm 11,3 km/h (2 Bft) W-SW 247 0 min 0 UV-I 0 W/m 25,7 km/h (4 Bft)
24.10.2010 04:40 8,3 C 83 % 1000,6 hPa 0,0 mm 11,3 km/h (2 Bft) W-SW 247 0 min 0 UV-I 0 W/m 33,8 km/h (5 Bft)
24.10.2010 04:50 8,3 C 82 % 1000,8 hPa 0,0 mm 11,3 km/h (2 Bft) W-SW 247 0 min 0 UV-I 0 W/m 33,8 km/h (5 Bft)
24.10.2010 05:00 8,3 C 82 % 1000,8 hPa 0,0 mm 9,7 km/h (2 Bft) W-SW 247 0 min 0 UV-I 0 W/m 30,6 km/h (5 Bft)
24.10.2010 05:10 8,3 C 81 % 1000,9 hPa 0,0 mm 11,3 km/h (2 Bft) W-SW 247 0 min 0 UV-I 0 W/m 29,0 km/h (5 Bft)
24.10.2010 05:20 8,3 C 81 % 1001,0 hPa 0,0 mm 9,7 km/h (2 Bft) W-SW 247 0 min 0 UV-I 0 W/m 22,5 km/h (4 Bft)
24.10.2010 05:30 8,2 C 81 % 1001,1 hPa 0,0 mm 9,7 km/h (2 Bft) W-SW 247 0 min 0 UV-I 0 W/m 30,6 km/h (5 Bft)
24.10.2010 05:40 8,2 C 81 % 1001,1 hPa 0,0 mm 9,7 km/h (2 Bft) SW 225 0 min 0 UV-I 0 W/m 27,4 km/h (4 Bft)
24.10.2010 05:50 8,2 C 81 % 1001,2 hPa 0,0 mm 11,3 km/h (2 Bft) W-SW 247 0 min 0 UV-I 0 W/m 29,0 km/h (5 Bft)
24.10.2010 06:00 8,2 C 81 % 1001,4 hPa 0,0 mm 9,7 km/h (2 Bft) SW 225 0 min 0 UV-I 0 W/m 25,7 km/h (4 Bft)
24.10.2010 06:10 8,1 C 81 % 1001,5 hPa 0,0 mm 8,0 km/h (2 Bft) W-SW 247 0 min 0 UV-I 0 W/m 25,7 km/h (4 Bft)
24.10.2010 06:20 8,1 C 81 % 1001,6 hPa 0,0 mm 9,7 km/h (2 Bft) W-SW 247 0 min 0 UV-I 0 W/m 24,1 km/h (4 Bft)
24.10.2010 06:30 8,0 C 81 % 1001,8 hPa 0,0 mm 8,0 km/h (2 Bft) W-SW 247 0 min 0 UV-I 0 W/m 22,5 km/h (4 Bft)
24.10.2010 06:40 8,0 C 81 % 1001,9 hPa 0,0 mm 9,7 km/h (2 Bft) W-SW 247 0 min 0 UV-I 0 W/m 29,0 km/h (5 Bft)
24.10.2010 06:50 7,9 C 81 % 1001,9 hPa 0,0 mm 8,0 km/h (2 Bft) W-SW 247 0 min 0 UV-I 0 W/m 27,4 km/h (4 Bft)
24.10.2010 07:00 7,9 C 81 % 1002,0 hPa 0,0 mm 9,7 km/h (2 Bft) W-SW 247 0 min 0 UV-I 0 W/m 32,2 km/h (5 Bft)
24.10.2010 07:10 7,9 C 81 % 1002,2 hPa 0,0 mm 11,3 km/h (2 Bft) W-SW 247 0 min 0 UV-I 0 W/m 27,4 km/h (4 Bft)
24.10.2010 07:20 7,9 C 81 % 1002,1 hPa 0,0 mm 12,9 km/h (3 Bft) W 270 0 min 0 UV-I 0 W/m 33,8 km/h (5 Bft)
24.10.2010 07:30 8,0 C 80 % 1002,2 hPa 0,0 mm 11,3 km/h (2 Bft) W 270 0 min 0 UV-I 0 W/m 33,8 km/h (5 Bft)
24.10.2010 07:40 8,0 C 80 % 1002,3 hPa 0,0 mm 11,3 km/h (2 Bft) W-SW 247 0 min 0 UV-I 0 W/m 29,0 km/h (5 Bft)
24.10.2010 07:50 8,1 C 81 % 1002,1 hPa 0,0 mm 11,3 km/h (2 Bft) W-SW 247 0 min 0 UV-I 0 W/m 35,4 km/h (5 Bft)
24.10.2010 08:00 7,9 C 81 % 1002,3 hPa 0,0 mm 15,2 km/h (3 Bft) SW 225 0 min 0 UV-I 0 W/m 29,0 km/h (5 Bft)
24.10.2010 08:10 7,8 C 81 % 1002,5 hPa 0,0 mm 12,9 km/h (3 Bft) W 270 0 min 0 UV-I 9 W/m 30,6 km/h (5 Bft)
24.10.2010 08:20 7,7 C 81 % 1002,4 hPa 0,0 mm 12,9 km/h (3 Bft) W-SW 247 0 min 0 UV-I 11 W/m 32,2 km/h (5 Bft)
24.10.2010 08:30 7,7 C 82 % 1002,8 hPa 0,0 mm 11,3 km/h (2 Bft) W 270 0 min 0 UV-I 11 W/m 32,2 km/h (5 Bft)
24.10.2010 08:40 7,7 C 81 % 1002,9 hPa 0,0 mm 14,5 km/h (3 Bft) W-SW 247 0 min 0 UV-I 25 W/m 33,8 km/h (5 Bft)
24.10.2010 08:50 7,7 C 81 % 1003,1 hPa 0,0 mm 11,3 km/h (2 Bft) W-SW 247 0 min 0 UV-I 18 W/m 25,7 km/h (4 Bft)
24.10.2010 09:00 7,7 C 81 % 1003,3 hPa 0,0 mm 14,5 km/h (3 Bft) W-SW 247 0 min 0 UV-I 39 W/m 30,6 km/h (5 Bft)
24.10.2010 09:10 7,8 C 81 % 1003,5 hPa 0,0 mm 11,3 km/h (2 Bft) W 270 0 min 0 UV-I 74 W/m 27,4 km/h (4 Bft)
24.10.2010 09:20 7,8 C 81 % 1003,6 hPa 0,0 mm 14,5 km/h (3 Bft) W-SW 247 0 min 0 UV-I 53 W/m 33,8 km/h (5 Bft)
24.10.2010 09:30 7,9 C 81 % 1003,7 hPa 0,0 mm 12,9 km/h (3 Bft) W-SW 247 0 min 0 UV-I 79 W/m 30,6 km/h (5 Bft)
24.10.2010 09:40 7,9 C 80 % 1003,8 hPa 0,0 mm 12,9 km/h (3 Bft) W 270 10 min 0 UV-I 118 W/m 32,2 km/h (5 Bft)
24.10.2010 09:50 8,0 C 80 % 1003,9 hPa 0,0 mm 14,5 km/h (3 Bft) W-SW 247 10 min 1 UV-I 204 W/m 35,4 km/h (5 Bft)
24.10.2010 10:00 8,1 C 80 % 1004,0 hPa 0,0 mm 12,9 km/h (3 Bft) W-SW 247 10 min 1 UV-I 151 W/m 35,4 km/h (5 Bft)
24.10.2010 10:10 8,2 C 79 % 1004,1 hPa 0,0 mm 14,5 km/h (3 Bft) W-SW 247 10 min 1 UV-I 281 W/m 33,8 km/h (5 Bft)
24.10.2010 10:20 8,3 C 79 % 1004,1 hPa 0,0 mm 14,5 km/h (3 Bft) W-SW 247 0 min 1 UV-I 149 W/m 37,0 km/h (5 Bft)
24.10.2010 10:30 8,4 C 80 % 1004,4 hPa 0,0 mm 12,8 km/h (3 Bft) W-SW 258 0 min 0 UV-I 142 W/m 33,8 km/h (5 Bft)
24.10.2010 10:40 8,4 C 79 % 1004,5 hPa 0,0 mm 13,4 km/h (3 Bft) S-SW 196 0 min 1 UV-I 104 W/m 30,6 km/h (5 Bft)
24.10.2010 10:50 8,4 C 79 % 1004,6 hPa 0,0 mm 13,1 km/h (3 Bft) W-SW 251 0 min 1 UV-I 153 W/m 29,0 km/h (5 Bft)
24.10.2010 11:00 8,4 C 79 % 1004,6 hPa 0,0 mm 10,3 km/h (2 Bft) W-SW 246 0 min 1 UV-I 111 W/m 29,0 km/h (5 Bft)
24.10.2010 11:10 8,5 C 79 % 1004,7 hPa 0,0 mm 9,7 km/h (2 Bft) SW 225 10 min 1 UV-I 214 W/m 30,6 km/h (5 Bft)
24.10.2010 11:20 8,8 C 77 % 1005,0 hPa 0,0 mm 14,5 km/h (3 Bft) W-SW 247 10 min 1 UV-I 338 W/m 32,2 km/h (5 Bft)
24.10.2010 11:30 8,9 C 77 % 1005,0 hPa 0,0 mm 11,3 km/h (2 Bft) W 270 0 min 1 UV-I 209 W/m 30,6 km/h (5 Bft)
24.10.2010 11:40 8,9 C 76 % 1005,1 hPa 0,0 mm 11,3 km/h (2 Bft) W 270 0 min 1 UV-I 172 W/m 27,4 km/h (4 Bft)
24.10.2010 11:50 8,9 C 75 % 1005,1 hPa 0,0 mm 14,5 km/h (3 Bft) W 270 10 min 1 UV-I 279 W/m 33,8 km/h (5 Bft)
24.10.2010 12:00 9,0 C 75 % 1005,2 hPa 0,0 mm 12,9 km/h (3 Bft) W 270 0 min 1 UV-I 218 W/m 32,2 km/h (5 Bft)
24.10.2010 12:10 8,9 C 75 % 1005,4 hPa 0,0 mm 12,9 km/h (3 Bft) W-SW 247 0 min 1 UV-I 97 W/m 29,0 km/h (5 Bft)
24.10.2010 12:20 8,8 C 75 % 1005,6 hPa 0,0 mm 11,3 km/h (2 Bft) W 270 0 min 1 UV-I 137 W/m 29,0 km/h (5 Bft)
24.10.2010 12:30 8,8 C 76 % 1005,7 hPa 0,0 mm 12,9 km/h (3 Bft) W 270 0 min 1 UV-I 144 W/m 29,0 km/h (5 Bft)
24.10.2010 12:40 8,8 C 76 % 1005,8 hPa 0,0 mm 9,7 km/h (2 Bft) W-SW 247 0 min 1 UV-I 174 W/m 29,0 km/h (5 Bft)
24.10.2010 12:50 8,8 C 76 % 1006,0 hPa 0,0 mm 11,3 km/h (2 Bft) W-SW 247 0 min 1 UV-I 195 W/m 27,4 km/h (4 Bft)
24.10.2010 13:00 8,9 C 76 % 1006,1 hPa 0,0 mm 9,7 km/h (2 Bft) W-SW 247 0 min 1 UV-I 186 W/m 30,6 km/h (5 Bft)
24.10.2010 13:10 8,9 C 76 % 1006,3 hPa 0,0 mm 8,0 km/h (2 Bft) W 270 0 min 1 UV-I 160 W/m 22,5 km/h (4 Bft)
24.10.2010 13:20 8,9 C 76 % 1006,3 hPa 0,0 mm 9,7 km/h (2 Bft) W 270 0 min 1 UV-I 95 W/m 22,5 km/h (4 Bft)
24.10.2010 13:30 8,9 C 75 % 1006,2 hPa 0,0 mm 9,7 km/h (2 Bft) W 270 0 min 0 UV-I 70 W/m 24,1 km/h (4 Bft)
24.10.2010 13:40 8,9 C 76 % 1006,4 hPa 0,0 mm 8,0 km/h (2 Bft) W 270 0 min 1 UV-I 86 W/m 25,7 km/h (4 Bft)
24.10.2010 13:50 8,8 C 75 % 1007,1 hPa 0,5 mm 8,0 km/h (2 Bft) W-NW 292 0 min 0 UV-I 56 W/m 24,1 km/h (4 Bft)
24.10.2010 14:00 8,1 C 77 % 1007,0 hPa 0,3 mm 8,0 km/h (2 Bft) W 270 0 min 0 UV-I 60 W/m 25,7 km/h (4 Bft)
24.10.2010 14:10 7,4 C 77 % 1007,1 hPa 0,0 mm 6,4 km/h (2 Bft) W 270 0 min 1 UV-I 121 W/m 20,9 km/h (4 Bft)
24.10.2010 14:20 7,3 C 82 % 1006,9 hPa 0,0 mm 1,6 km/h (1 Bft) W 270 10 min 2 UV-I 587 W/m 9,7 km/h (2 Bft)
24.10.2010 14:30 7,9 C 81 % 1006,9 hPa 0,0 mm 3,2 km/h (1 Bft) W 270 10 min 2 UV-I 494 W/m 9,7 km/h (2 Bft)
24.10.2010 14:40 8,5 C 82 % 1006,8 hPa 0,0 mm 3,2 km/h (1 Bft) SW 225 10 min 2 UV-I 519 W/m 8,0 km/h (2 Bft)
24.10.2010 14:50 9,3 C 79 % 1006,9 hPa 0,0 mm 4,8 km/h (1 Bft) W 270 10 min 1 UV-I 450 W/m 14,5 km/h (3 Bft)
24.10.2010 15:00 9,6 C 74 % 1007,0 hPa 0,0 mm 6,4 km/h (2 Bft) W 270 10 min 1 UV-I 397 W/m 19,3 km/h (3 Bft)
24.10.2010 15:10 9,8 C 72 % 1007,0 hPa 0,0 mm 4,8 km/h (1 Bft) W 270 10 min 1 UV-I 204 W/m 17,7 km/h (3 Bft)
24.10.2010 15:20 9,7 C 71 % 1007,1 hPa 0,0 mm 11,3 km/h (2 Bft) W 270 0 min 1 UV-I 171 W/m 27,4 km/h (4 Bft)
24.10.2010 15:30 9,6 C 70 % 1007,3 hPa 0,0 mm 9,7 km/h (2 Bft) W 270 0 min 1 UV-I 169 W/m 24,1 km/h (4 Bft)
24.10.2010 15:40 9,5 C 70 % 1007,5 hPa 0,0 mm 6,4 km/h (2 Bft) W 270 0 min 1 UV-I 118 W/m 27,4 km/h (4 Bft)
24.10.2010 15:50 9,4 C 71 % 1007,7 hPa 0,0 mm 8,0 km/h (2 Bft) W-NW 292 0 min 1 UV-I 109 W/m 24,1 km/h (4 Bft)
24.10.2010 16:00 8,8 C 72 % 1007,8 hPa 0,0 mm 4,8 km/h (1 Bft) W 270 0 min 1 UV-I 77 W/m 24,1 km/h (4 Bft)
24.10.2010 16:10 8,2 C 75 % 1007,8 hPa 0,0 mm 1,6 km/h (1 Bft) W 270 0 min 1 UV-I 130 W/m 8,0 km/h (2 Bft)
24.10.2010 16:20 8,4 C 75 % 1007,6 hPa 0,0 mm 3,2 km/h (1 Bft) W-NW 292 10 min 1 UV-I 241 W/m 9,7 km/h (2 Bft)
24.10.2010 16:30 8,7 C 74 % 1007,8 hPa 0,0 mm 3,2 km/h (1 Bft) W 270 10 min 1 UV-I 214 W/m 9,7 km/h (2 Bft)
24.10.2010 16:40 8,7 C 75 % 1007,9 hPa 0,0 mm 1,6 km/h (1 Bft) W 270 0 min 1 UV-I 76 W/m 6,4 km/h (2 Bft)
24.10.2010 16:50 8,8 C 75 % 1008,0 hPa 0,0 mm 1,6 km/h (1 Bft) W 270 10 min 0 UV-I 251 W/m 6,4 km/h (2 Bft)
24.10.2010 17:00 8,8 C 77 % 1008,3 hPa 0,0 mm 1,6 km/h (1 Bft) W 270 0 min 0 UV-I 49 W/m 6,4 km/h (2 Bft)
24.10.2010 17:10 8,6 C 79 % 1008,7 hPa 0,0 mm 3,2 km/h (1 Bft) W 270 0 min 0 UV-I 49 W/m 19,3 km/h (3 Bft)
24.10.2010 17:20 8,3 C 77 % 1008,7 hPa 0,3 mm 6,4 km/h (2 Bft) NW 315 0 min 0 UV-I 21 W/m 19,3 km/h (3 Bft)
24.10.2010 17:30 8,0 C 78 % 1008,6 hPa 0,3 mm 1,6 km/h (1 Bft) NW 315 0 min 0 UV-I 35 W/m 8,0 km/h (2 Bft)
24.10.2010 17:40 7,8 C 79 % 1008,7 hPa 0,0 mm 1,6 km/h (1 Bft) W-NW 292 0 min 0 UV-I 33 W/m 3,2 km/h (1 Bft)
24.10.2010 17:50 7,7 C 79 % 1008,8 hPa 0,0 mm 0,0 km/h (0 Bft) W-NW 292 0 min 0 UV-I 18 W/m 3,2 km/h (1 Bft)
24.10.2010 18:00 7,4 C 80 % 1009,0 hPa 0,0 mm 0,0 km/h (0 Bft) W-NW 292 10 min 0 UV-I 11 W/m 3,2 km/h (1 Bft)
24.10.2010 18:10 7,3 C 80 % 1009,0 hPa 0,0 mm 0,0 km/h (0 Bft) W-NW 292 0 min 0 UV-I 7 W/m 1,6 km/h (1 Bft)
24.10.2010 18:20 7,1 C 80 % 1009,2 hPa 0,0 mm 0,0 km/h (0 Bft) W-NW 292 0 min 0 UV-I 0 W/m 1,6 km/h (1 Bft)
24.10.2010 18:30 6,9 C 80 % 1009,3 hPa 0,0 mm 0,0 km/h (0 Bft) N 0 0 min 0 UV-I 0 W/m 0,0 km/h (0 Bft)
24.10.2010 18:40 6,7 C 80 % 1009,4 hPa 0,0 mm 0,0 km/h (0 Bft) N 0 0 min 0 UV-I 0 W/m 0,0 km/h (0 Bft)
24.10.2010 18:50 6,4 C 80 % 1009,6 hPa 0,0 mm 0,0 km/h (0 Bft) W-NW 292 0 min 0 UV-I 0 W/m 1,6 km/h (1 Bft)
24.10.2010 19:00 6,3 C 81 % 1009,9 hPa 0,0 mm 0,0 km/h (0 Bft) W-NW 292 0 min 0 UV-I 0 W/m 1,6 km/h (1 Bft)
24.10.2010 19:10 6,1 C 82 % 1010,0 hPa 0,0 mm 0,0 km/h (0 Bft) W-NW 292 0 min 0 UV-I 0 W/m 4,8 km/h (1 Bft)
24.10.2010 19:20 6,1 C 83 % 1010,4 hPa 0,0 mm 0,0 km/h (0 Bft) W-NW 292 0 min 0 UV-I 0 W/m 4,8 km/h (1 Bft)
24.10.2010 19:30 6,1 C 84 % 1010,4 hPa 0,0 mm 0,0 km/h (0 Bft) W-NW 292 0 min 0 UV-I 0 W/m 3,2 km/h (1 Bft)
24.10.2010 19:40 6,2 C 85 % 1010,6 hPa 0,0 mm 1,6 km/h (1 Bft) W 270 0 min 0 UV-I 0 W/m 4,8 km/h (1 Bft)
24.10.2010 19:50 6,3 C 85 % 1010,9 hPa 0,0 mm 1,6 km/h (1 Bft) W-SW 247 0 min 0 UV-I 0 W/m 11,3 km/h (2 Bft)
24.10.2010 20:00 6,3 C 85 % 1011,0 hPa 0,0 mm 1,6 km/h (1 Bft) W-SW 247 0 min 0 UV-I 0 W/m 11,3 km/h (2 Bft)
24.10.2010 20:10 6,2 C 85 % 1011,1 hPa 0,0 mm 1,6 km/h (1 Bft) W-SW 247 0 min 0 UV-I 0 W/m 8,0 km/h (2 Bft)
24.10.2010 20:20 6,1 C 85 % 1011,2 hPa 0,0 mm 1,6 km/h (1 Bft) W-SW 247 0 min 0 UV-I 0 W/m 8,0 km/h (2 Bft)
24.10.2010 20:30 6,0 C 85 % 1011,2 hPa 0,0 mm 3,2 km/h (1 Bft) W-SW 247 0 min 0 UV-I 0 W/m 9,7 km/h (2 Bft)
24.10.2010 20:40 5,9 C 85 % 1011,4 hPa 0,0 mm 3,2 km/h (1 Bft) W-SW 247 0 min 0 UV-I 0 W/m 11,3 km/h (2 Bft)
24.10.2010 20:50 5,8 C 85 % 1011,5 hPa 0,0 mm 3,2 km/h (1 Bft) W 270 0 min 0 UV-I 0 W/m 11,3 km/h (2 Bft)
24.10.2010 21:00 5,8 C 84 % 1011,6 hPa 0,0 mm 1,6 km/h (1 Bft) W 270 0 min 0 UV-I 0 W/m 9,7 km/h (2 Bft)
24.10.2010 21:10 5,7 C 84 % 1011,9 hPa 0,0 mm 3,2 km/h (1 Bft) W-SW 247 0 min 0 UV-I 0 W/m 11,3 km/h (2 Bft)
24.10.2010 21:20 5,7 C 84 % 1011,9 hPa 0,0 mm 0,0 km/h (0 Bft) W-SW 247 0 min 0 UV-I 0 W/m 4,8 km/h (1 Bft)
24.10.2010 21:30 5,6 C 84 % 1012,2 hPa 0,0 mm 1,6 km/h (1 Bft) W-SW 247 0 min 0 UV-I 0 W/m 4,8 km/h (1 Bft)
24.10.2010 21:40 5,6 C 84 % 1012,2 hPa 0,0 mm 0,0 km/h (0 Bft) W-SW 247 0 min 0 UV-I 0 W/m 6,4 km/h (2 Bft)
24.10.2010 21:50 5,5 C 84 % 1012,3 hPa 0,0 mm 1,6 km/h (1 Bft) W 270 0 min 0 UV-I 0 W/m 8,0 km/h (2 Bft)
24.10.2010 22:00 5,4 C 84 % 1012,3 hPa 0,0 mm 3,2 km/h (1 Bft) W 270 0 min 0 UV-I 0 W/m 8,0 km/h (2 Bft)
24.10.2010 22:10 5,4 C 84 % 1012,4 hPa 0,0 mm 3,2 km/h (1 Bft) W 270 0 min 0 UV-I 0 W/m 9,7 km/h (2 Bft)
24.10.2010 22:20 5,4 C 84 % 1012,5 hPa 0,0 mm 3,2 km/h (1 Bft) W 270 0 min 0 UV-I 0 W/m 12,9 km/h (3 Bft)
24.10.2010 22:30 5,4 C 84 % 1012,7 hPa 0,0 mm 3,2 km/h (1 Bft) W 270 0 min 0 UV-I 0 W/m 11,3 km/h (2 Bft)
24.10.2010 22:40 5,4 C 85 % 1012,9 hPa 0,0 mm 3,2 km/h (1 Bft) W 270 0 min 0 UV-I 0 W/m 11,3 km/h (2 Bft)
24.10.2010 22:50 5,4 C 85 % 1012,9 hPa 0,0 mm 3,2 km/h (1 Bft) W 270 0 min 0 UV-I 0 W/m 9,7 km/h (2 Bft)
24.10.2010 23:00 5,4 C 85 % 1013,0 hPa 0,0 mm 3,2 km/h (1 Bft) W 270 0 min 0 UV-I 0 W/m 11,3 km/h (2 Bft)
24.10.2010 23:10 5,4 C 85 % 1013,1 hPa 0,0 mm 1,6 km/h (1 Bft) W 270 0 min 0 UV-I 0 W/m 8,0 km/h (2 Bft)
24.10.2010 23:20 5,3 C 85 % 1013,3 hPa 0,0 mm 1,6 km/h (1 Bft) W 271 0 min 0 UV-I 0 W/m 6,4 km/h (2 Bft)
24.10.2010 23:30 5,2 C 85 % 1013,4 hPa 0,0 mm 1,4 km/h (1 Bft) W 264 0 min 0 UV-I 0 W/m 8,0 km/h (2 Bft)
24.10.2010 23:40 5,1 C 85 % 1013,5 hPa 0,0 mm 0,8 km/h (0 Bft) W 269 0 min 0 UV-I 0 W/m 6,4 km/h (2 Bft)
24.10.2010 23:50 5,0 C 85 % 1013,6 hPa 0,0 mm 0,3 km/h (0 Bft) W 268 0 min 0 UV-I 0 W/m 4,8 km/h (1 Bft)
_ Min-Zeit 23:50 15:30 01:50 - 17:50 - - - - - 18:30
Minimum _ 4,9 C 70 % 999,4 hPa - 0,0 km/h (0 Bft) - - - - - 0,0 km/h (0 Bft)
_ Max-Zeit 15:10 19:40 23:50 13:50 08:00 - - 09:40 14:20 14:20 10:20
Maximum _ 9,8 C 85 % 1013,6 hPa 0,5 mm 15,2 km/h
SW (3 Bft)
- - 10 min 2 UV-I 587 W/m 37,0 km/h
W (5 Bft)
Durchschnitt _ 7,8 C 80 % 1005,5 hPa #1,5 mm 7,1 km/h (2 Bft) W-SW - #2:50 h 1 UV-I 150 W/m 20,4 km/h (4 Bft)